Time,TemperatureF,DewpointF,PressureIn,WindDirection,WindDirectionDegrees,WindSpeedMPH,WindSpeedGustMPH,Humidity,HourlyPrecipIn,Conditions,Clouds,dailyrainin,SoftwareType,DateUTC
2013-07-21 00:15:00,72.0,71.4,29.83,SSE,157,7.8,-999.0,98,-99.99,,,0.00,Acu-Link.com,2013-07-21 05:15:00,
2013-07-21 04:14:00,70.2,69.6,29.82,West,270,6.3,-999.0,98,-99.99,,,0.00,Acu-Link.com,2013-07-21 09:14:00,
2013-07-21 04:29:00,70.2,69.6,29.80,ESE,112,6.8,-999.0,98,-99.99,,,0.02,Acu-Link.com,2013-07-21 09:29:00,
2013-07-21 04:45:00,70.0,69.4,29.80,SE,135,4.7,-999.0,98,-99.99,,,0.02,Acu-Link.com,2013-07-21 09:45:00,
2013-07-21 05:00:00,69.8,69.2,29.79,East,90,10.4,-999.0,98,-99.99,,,0.02,Acu-Link.com,2013-07-21 10:00:00,
2013-07-21 05:16:00,69.8,69.2,29.80,ESE,112,5.8,-999.0,98,-99.99,,,0.02,Acu-Link.com,2013-07-21 10:16:00,
2013-07-21 06:11:00,68.9,68.3,29.79,NNW,337,3.2,-999.0,98,-99.99,,,0.02,Acu-Link.com,2013-07-21 11:11:00,
2013-07-21 06:26:00,68.7,68.1,29.80,SE,135,2.7,-999.0,98,-99.99,,,0.08,Acu-Link.com,2013-07-21 11:26:00,
2013-07-21 06:41:00,68.9,68.3,29.80,ESE,112,4.7,-999.0,98,-99.99,,,0.08,Acu-Link.com,2013-07-21 11:41:00,
2013-07-21 06:56:00,68.9,68.3,29.80,ESE,112,7.8,-999.0,98,-99.99,,,0.08,Acu-Link.com,2013-07-21 11:56:00,
2013-07-21 07:11:00,68.9,68.3,29.81,ESE,112,7.8,-999.0,98,-99.99,,,0.08,Acu-Link.com,2013-07-21 12:11:00,
2013-07-21 07:27:00,68.9,68.3,29.82,ESE,112,4.7,-999.0,98,-99.99,,,0.08,Acu-Link.com,2013-07-21 12:27:00,
2013-07-21 07:42:00,68.9,68.3,29.81,SSE,157,4.2,-999.0,98,-99.99,,,0.08,Acu-Link.com,2013-07-21 12:42:00,
2013-07-21 07:57:00,69.1,68.5,29.81,ENE,67,7.3,-999.0,98,-99.99,,,0.08,Acu-Link.com,2013-07-21 12:57:00,
2013-07-21 08:12:00,69.3,68.7,29.82,ESE,112,3.2,-999.0,98,-99.99,,,0.08,Acu-Link.com,2013-07-21 13:12:00,
2013-07-21 08:27:00,69.4,68.8,29.81,South,180,7.8,-999.0,98,-99.99,,,0.08,Acu-Link.com,2013-07-21 13:27:00,
2013-07-21 08:42:00,70.0,69.4,29.81,ESE,112,5.8,-999.0,98,-99.99,,,0.09,Acu-Link.com,2013-07-21 13:42:00,
2013-07-21 08:57:00,70.7,70.1,29.82,SSE,157,5.3,-999.0,98,-99.99,,,0.09,Acu-Link.com,2013-07-21 13:57:00,
2013-07-21 09:12:00,71.8,71.2,29.82,NE,45,4.7,-999.0,98,-99.99,,,0.09,Acu-Link.com,2013-07-21 14:12:00,
2013-07-21 09:27:00,72.3,71.7,29.83,SSE,157,4.2,-999.0,98,-99.99,,,0.09,Acu-Link.com,2013-07-21 14:27:00,
2013-07-21 09:43:00,73.2,72.6,29.83,SSE,157,5.3,-999.0,98,-99.99,,,0.09,Acu-Link.com,2013-07-21 14:43:00,
2013-07-21 10:00:00,73.8,73.2,29.82,South,180,6.3,-999.0,98,-99.99,,,0.09,Acu-Link.com,2013-07-21 15:00:00,
2013-07-21 10:19:00,73.8,73.2,29.82,ESE,112,5.8,-999.0,98,-99.99,,,0.09,Acu-Link.com,2013-07-21 15:19:00,
2013-07-21 10:34:00,75.2,74.6,29.82,SW,225,5.8,-999.0,98,-99.99,,,0.09,Acu-Link.com,2013-07-21 15:34:00,
2013-07-21 11:08:00,78.3,77.7,29.82,NNE,22,5.8,-999.0,98,-99.99,,,0.09,Acu-Link.com,2013-07-21 16:08:00,
2013-07-21 11:23:00,81.1,80.5,29.82,ESE,112,3.2,-999.0,98,-99.99,,,0.09,Acu-Link.com,2013-07-21 16:23:00,
2013-07-21 11:43:00,82.9,82.3,29.81,ESE,112,10.4,-999.0,98,-99.99,,,0.09,Acu-Link.com,2013-07-21 16:43:00,
2013-07-21 12:03:00,82.9,82.3,29.82,East,90,8.3,-999.0,98,-99.99,,,0.09,Acu-Link.com,2013-07-21 17:03:00,
2013-07-21 13:50:00,87.6,87.0,29.78,South,180,7.3,-999.0,98,-99.99,,,0.09,Acu-Link.com,2013-07-21 18:50:00,
2013-07-21 14:05:00,87.4,86.8,29.78,NNE,22,7.3,-999.0,98,-99.99,,,0.09,Acu-Link.com,2013-07-21 19:05:00,
2013-07-21 14:20:00,88.3,87.7,29.78,WSW,247,5.3,-999.0,98,-99.99,,,0.09,Acu-Link.com,2013-07-21 19:20:00,
2013-07-21 14:36:00,87.1,86.5,29.78,ESE,112,1.1,-999.0,98,-99.99,,,0.09,Acu-Link.com,2013-07-21 19:36:00,
2013-07-21 14:51:00,89.8,89.2,29.77,ESE,112,4.7,-999.0,98,-99.99,,,0.09,Acu-Link.com,2013-07-21 19:51:00,
2013-07-21 15:07:00,87.8,87.2,29.76,NNE,22,1.1,-999.0,98,-99.99,,,0.09,Acu-Link.com,2013-07-21 20:07:00,
2013-07-21 15:22:00,88.0,87.4,29.76,SE,135,1.7,-999.0,98,-99.99,,,0.09,Acu-Link.com,2013-07-21 20:22:00,
2013-07-21 15:37:00,92.1,91.4,29.75,ESE,112,6.3,-999.0,98,-99.99,,,0.09,Acu-Link.com,2013-07-21 20:37:00,
2013-07-21 15:52:00,90.1,89.5,29.75,SSW,202,7.3,-999.0,98,-99.99,,,0.09,Acu-Link.com,2013-07-21 20:52:00,
2013-07-21 16:07:00,92.3,91.6,29.75,NE,45,4.7,-999.0,98,-99.99,,,0.09,Acu-Link.com,2013-07-21 21:07:00,
2013-07-21 16:27:00,91.6,91.0,29.74,SE,135,0.0,-999.0,98,-99.99,,,0.09,Acu-Link.com,2013-07-21 21:27:00,
2013-07-21 16:42:00,94.6,93.9,29.74,SSE,157,3.2,-999.0,98,-99.99,,,0.09,Acu-Link.com,2013-07-21 21:42:00,
2013-07-21 16:57:00,93.9,93.2,29.74,SSE,157,4.7,-999.0,98,-99.99,,,0.09,Acu-Link.com,2013-07-21 21:57:00,
2013-07-21 17:13:00,92.5,91.8,29.73,South,180,5.3,-999.0,98,-99.99,,,0.09,Acu-Link.com,2013-07-21 22:13:00,
2013-07-21 17:28:00,91.2,90.6,29.74,SSE,157,5.8,-999.0,98,-99.99,,,0.09,Acu-Link.com,2013-07-21 22:28:00,
2013-07-21 17:46:00,90.9,90.3,29.73,SSE,157,3.2,-999.0,98,-99.99,,,0.09,Acu-Link.com,2013-07-21 22:46:00,
2013-07-21 18:02:00,91.6,91.0,29.72,SSE,157,2.2,-999.0,98,-99.99,,,0.09,Acu-Link.com,2013-07-21 23:02:00,
2013-07-21 18:17:00,91.6,91.0,29.71,SSE,157,4.2,-999.0,98,-99.99,,,0.09,Acu-Link.com,2013-07-21 23:17:00,
2013-07-21 18:32:00,91.4,90.8,29.71,ESE,112,3.7,-999.0,98,-99.99,,,0.09,Acu-Link.com,2013-07-21 23:32:00,
2013-07-21 19:00:00,90.5,89.9,29.71,ESE,112,5.8,-999.0,98,-99.99,,,0.09,Acu-Link.com,2013-07-22 00:00:00,
2013-07-21 19:16:00,90.0,89.4,29.71,SSW,202,5.3,-999.0,98,-99.99,,,0.09,Acu-Link.com,2013-07-22 00:16:00,
2013-07-21 19:31:00,89.8,89.2,29.70,South,180,5.3,-999.0,98,-99.99,,,0.09,Acu-Link.com,2013-07-22 00:31:00,
2013-07-21 19:46:00,88.7,88.1,29.70,ESE,112,2.2,-999.0,98,-99.99,,,0.09,Acu-Link.com,2013-07-22 00:46:00,
2013-07-21 20:01:00,87.6,87.0,29.71,ENE,67,3.7,-999.0,98,-99.99,,,0.09,Acu-Link.com,2013-07-22 01:01:00,
2013-07-21 20:16:00,86.5,85.9,29.71,SSE,157,4.2,-999.0,98,-99.99,,,0.09,Acu-Link.com,2013-07-22 01:16:00,
2013-07-21 20:31:00,85.1,84.5,29.71,ESE,112,3.7,-999.0,98,-99.99,,,0.09,Acu-Link.com,2013-07-22 01:31:00,
2013-07-21 20:46:00,83.5,82.9,29.72,SE,135,5.8,-999.0,98,-99.99,,,0.09,Acu-Link.com,2013-07-22 01:46:00,
2013-07-21 21:01:00,82.6,82.0,29.72,NNE,22,4.2,-999.0,98,-99.99,,,0.09,Acu-Link.com,2013-07-22 02:01:00,
2013-07-21 21:16:00,82.0,81.4,29.72,ESE,112,3.7,-999.0,98,-99.99,,,0.09,Acu-Link.com,2013-07-22 02:16:00,
2013-07-21 21:32:00,81.1,80.5,29.72,ESE,112,3.2,-999.0,98,-99.99,,,0.09,Acu-Link.com,2013-07-22 02:32:00,
2013-07-21 21:47:00,81.0,80.4,29.72,ESE,112,2.7,-999.0,98,-99.99,,,0.09,Acu-Link.com,2013-07-22 02:47:00,
2013-07-21 22:02:00,80.6,80.0,29.73,ESE,112,4.7,-999.0,98,-99.99,,,0.09,Acu-Link.com,2013-07-22 03:02:00,
2013-07-21 22:17:00,80.4,79.8,29.73,SE,135,4.7,-999.0,98,-99.99,,,0.09,Acu-Link.com,2013-07-22 03:17:00,
2013-07-21 22:32:00,80.1,79.5,29.73,South,180,4.7,-999.0,98,-99.99,,,0.09,Acu-Link.com,2013-07-22 03:32:00,
2013-07-21 22:47:00,79.9,79.3,29.74,SE,135,4.2,-999.0,98,-99.99,,,0.09,Acu-Link.com,2013-07-22 03:47:00,
2013-07-21 23:02:00,79.5,78.9,29.74,SSE,157,4.7,-999.0,98,-99.99,,,0.09,Acu-Link.com,2013-07-22 04:02:00,
2013-07-21 23:17:00,79.2,78.6,29.74,South,180,4.2,-999.0,98,-99.99,,,0.09,Acu-Link.com,2013-07-22 04:17:00,
2013-07-21 23:32:00,78.8,78.2,29.74,East,90,7.3,-999.0,98,-99.99,,,0.09,Acu-Link.com,2013-07-22 04:32:00,